MM1PTT-13 Weather Reports


time (UTC)temp
C
wind
direction
speed
KPH
gust
KPH
rain 1hr
cm
rain 24hr
cm
rain mn
cm
humidity
%
barometer
mb
20260503050542 8 37 8.0 11.3 0.03 0.00 0.15 93 984.1
20260503050043 8 87 8.0 9.7 0.03 0.00 0.13 93 984.1
20260503045542 8 59 11.3 14.5 0.03 0.00 0.13 93 984.1
20260503045042 8 43 12.9 16.1 0.03 0.00 0.13 92 983.7
20260503044542 8 42 8.0 12.9 0.03 0.00 0.13 92 984.1
20260503044042 8 92 9.7 12.9 0.03 0.00 0.13 92 983.7
20260503043542 8 42 11.3 12.9 0.03 0.00 0.13 92 983.7
20260503043042 8 47 9.7 12.9 0.03 0.00 0.13 92 984.1
20260503042542 8 19 8.0 9.7 0.03 0.00 0.10 92 984.1
20260503042043 8 69 8.0 11.3 0.03 0.00 0.10 92 984.1
20260503041543 8 44 14.5 17.7 0.03 0.00 0.10 92 984.1
20260503041042 8 8 8.0 9.7 0.03 0.00 0.10 92 984.1
20260503040543 8 80 8.0 11.3 0.03 0.00 0.10 92 984.1
20260503040042 8 174 4.8 8.0 0.03 0.00 0.10 92 984.1
20260503035543 8 42 14.5 16.1 0.03 0.00 0.10 92 984.1
20260503035042 8 32 8.0 11.3 0.03 0.00 0.10 92 984.1
20260503034542 8 64 16.1 20.9 0.03 0.00 0.10 92 983.7
20260503034043 8 9 9.7 12.9 0.03 0.00 0.10 92 984.1
20260503033542 8 7 11.3 12.9 0.03 0.00 0.05 92 984.1
20260503033042 8 44 12.9 17.7 0.03 0.00 0.05 92 984.1
20260503032546 8 112 9.7 11.3 0.03 0.00 0.05 92 984.1
20260503032042 8 70 12.9 16.1 0.00 0.00 0.05 92 984.1
20260503031542 8 45 11.3 12.9 0.00 0.00 0.05 92 984.1
20260503031042 8 58 8.0 11.3 0.00 0.00 0.03 92 984.1
20260503030542 8 80 12.9 14.5 0.00 0.00 0.03 92 984.1
20260503030042 8 69 12.9 16.1 0.00 0.00 0.03 92 984.1
20260503025542 8 65 9.7 12.9 0.00 0.00 0.03 92 984.1
20260503025042 8 106 8.0 9.7 0.00 0.00 0.03 92 984.1
20260503024543 8 34 16.1 20.9 0.00 0.00 0.00 92 984.1
20260503024043 8 69 6.4 8.0 0.00 0.00 0.00 92 984.1
20260503023542 8 98 8.0 11.3 0.00 0.00 0.00 92 983.7
20260503023042 8 49 9.7 16.1 0.00 0.00 0.00 92 984.1
20260503022542 8 133 9.7 12.9 0.00 0.00 0.00 92 984.1
20260503022042 8 47 6.4 8.0 0.00 0.00 0.00 92 984.1
20260503021543 8 80 8.0 11.3 0.00 0.00 0.00 92 984.1
20260503021042 8 18 6.4 8.0 0.00 0.00 0.00 92 984.1
20260503020542 8 77 11.3 11.3 0.00 0.00 0.00 92 984.1
20260503020042 8 46 8.0 8.0 0.00 0.00 0.00 92 984.1
20260503015543 8 41 12.9 16.1 0.00 0.00 0.00 92 984.1
20260503015043 8 37 8.0 9.7 0.00 0.00 0.00 92 984.1
20260503014543 8 60 14.5 17.7 0.00 0.00 0.00 92 984.1
20260503014042 8 53 11.3 12.9 0.00 0.00 0.00 92 984.1
20260503013542 8 62 14.5 19.3 0.00 0.00 0.00 92 984.1
20260503013042 8 16 9.7 14.5 0.00 0.00 0.00 91 984.1
20260503012543 8 70 12.9 16.1 0.00 0.00 0.00 91 984.1
20260503012042 9 44 9.7 12.9 0.00 0.00 0.00 91 984.4
20260503011542 9 42 11.3 14.5 0.00 0.00 0.00 91 984.1
20260503011042 9 55 4.8 6.4 0.00 0.00 0.00 90 984.4
20260503010542 9 111 9.7 17.7 0.00 0.00 0.00 90 984.1
20260503010042 9 31 6.4 8.0 0.00 0.00 0.00 90 984.4
20260503005542 9 100 3.2 8.0 0.00 0.00 0.00 90 984.4
20260503005042 9 39 9.7 12.9 0.00 0.00 0.00 90 984.4
20260503004542 9 1 9.7 14.5 0.00 0.00 0.00 90 984.4
20260503004042 9 50 17.7 20.9 0.00 0.00 0.00 90 984.4
20260503003543 9 87 11.3 17.7 0.00 0.00 0.00 90 984.4
20260503003042 9 25 11.3 16.1 0.00 0.00 0.00 90 984.4
20260503002543 9 51 9.7 12.9 0.00 0.00 0.00 90 984.4
20260503002042 9 55 16.1 20.9 0.00 0.00 0.00 90 984.8
20260503001543 9 34 6.4 9.7 0.00 0.00 0.00 90 984.4
20260503001042 9 15 14.5 17.7 0.00 0.00 0.00 90 984.8
20260503000542 9 55 9.7 12.9 0.00 0.00 0.00 91 984.4
20260503000043 9 21 17.7 24.1 0.00 0.00 0.00 90 984.8
20260502235543 9 33 8.0 11.3 0.00 0.00 0.00 90 984.8
20260502235043 9 353 11.3 11.3 0.00 0.00 0.00 90 984.8
20260502234542 9 43 9.7 12.9 0.00 0.00 0.00 90 984.8
20260502234042 9 1 4.8 9.7 0.00 0.00 0.00 90 984.8
20260502233542 9 93 11.3 17.7 0.00 0.00 0.00 89 984.8
20260502233043 9 23 9.7 11.3 0.00 0.00 0.00 89 984.8
20260502232543 9 46 8.0 11.3 0.00 0.00 0.00 89 984.8
20260502232042 9 85 8.0 11.3 0.00 0.00 0.00 90 984.8
20260502231542 9 46 12.9 20.9 0.00 0.00 0.00 89 984.8
20260502231042 9 344 4.8 8.0 0.00 0.00 0.00 90 984.8
20260502230542 9 160 4.8 9.7 0.00 0.00 0.00 90 984.8
20260502230042 9 37 11.3 17.7 0.00 0.00 0.10 90 984.8
20260502225542 9 43 8.0 11.3 0.00 0.00 0.10 89 984.8
20260502225042 9 37 6.4 9.7 0.00 0.00 0.10 89 984.8
20260502224543 9 44 8.0 12.9 0.00 0.00 0.10 89 984.8
20260502224042 9 5 4.8 9.7 0.00 0.00 0.10 89 984.8
20260502223542 9 55 8.0 11.3 0.00 0.00 0.10 89 984.8
20260502223043 9 47 8.0 11.3 0.00 0.00 0.10 89 984.8
20260502222542 9 62 8.0 11.3 0.00 0.00 0.10 89 984.8
20260502222043 9 106 4.8 8.0 0.00 0.00 0.10 88 984.8
20260502221542 9 128 3.2 3.2 0.00 0.00 0.10 88 984.8
20260502221042 9 69 1.6 3.2 0.00 0.00 0.10 88 984.8
20260502220542 9 60 12.9 16.1 0.00 0.00 0.10 88 984.8
20260502220042 9 119 4.8 11.3 0.00 0.00 0.10 88 984.8
20260502215546 9 132 4.8 8.0 0.00 0.00 0.10 88 984.8
20260502215042 9 48 9.7 12.9 0.00 0.00 0.10 87 984.8
20260502214542 9 118 6.4 16.1 0.00 0.00 0.10 86 984.8
20260502214044 9 111 9.7 16.1 0.00 0.00 0.10 86 984.8
20260502213542 9 52 4.8 8.0 0.00 0.00 0.10 85 984.8
20260502213042 9 97 4.8 6.4 0.00 0.00 0.10 85 984.8
20260502212542 9 79 9.7 11.3 0.00 0.00 0.10 85 984.4
20260502212042 9 121 8.0 11.3 0.00 0.00 0.10 84 984.8
20260502211542 9 60 9.7 11.3 0.00 0.00 0.10 84 984.4
20260502211042 10 45 14.5 17.7 0.00 0.00 0.10 83 984.4
20260502204043 10 95 8.0 11.3 0.00 0.00 0.10 86 984.4
20260502201042 12 50 4.8 6.4 0.00 0.00 0.05 90 984.1
20260502200043 12 42 3.2 3.2 0.00 0.00 0.05 89 984.1
20260502194543 12 78 1.6 1.6 0.00 0.00 0.05 88 983.7
20260502194042 12 61 0.0 1.6 0.00 0.00 0.05 88 983.7
20260502192744 13 50 0.0 0.0 0.00 0.00 0.05 87 983.7
20260502191543 13 102 0.0 1.6 0.00 0.00 0.05 86 983.7
20260502191043 13 65 1.6 3.2 0.00 0.00 0.05 85 983.7
20260502185542 13 80 1.6 3.2 0.00 0.00 0.05 84 983.7
20260502185042 13 34 1.6 1.6 0.00 0.00 0.05 86 983.4
20260502184543 13 55 1.6 3.2 0.00 0.00 0.05 86 983.7
20260502183543 12 24 3.2 3.2 0.00 0.00 0.05 85 983.4
20260502183042 12 25 1.6 3.2 0.00 0.00 0.05 87 983.4
20260502182544 13 24 1.6 3.2 0.00 0.00 0.05 88 983.4
20260502180544 12 31 0.0 1.6 0.00 0.00 0.05 87 983.7
20260502164042 14 61 6.4 8.0 0.00 0.00 0.00 76 983.7
20260502163542 14 315 1.6 3.2 0.00 0.00 0.00 77 983.7
20260502163042 14 40 4.8 6.4 0.00 0.00 0.00 78 983.7
20260502162542 14 345 4.8 6.4 0.00 0.00 0.00 75 983.7
20260502162042 14 39 4.8 8.0 0.00 0.00 0.00 75 983.7
20260502161542 14 36 4.8 6.4 0.00 0.00 0.00 74 983.7
20260502160542 15 355 4.8 6.4 0.00 0.00 0.00 72 983.7
20260502152042 15 266 1.6 3.2 0.00 0.00 0.00 70 984.1
20260502151543 15 92 0.0 1.6 0.00 0.00 0.00 70 983.7
20260502151042 15 122 1.6 3.2 0.00 0.00 0.00 70 984.1
20260502150543 15 165 1.6 3.2 0.00 0.00 0.00 71 984.1
20260502130543 15 322 3.2 6.4 0.00 0.00 0.00 75 984.8
20260502123543 15 294 6.4 8.0 0.00 0.00 0.00 73 985.1
20260502123042 15 231 4.8 6.4 0.00 0.00 0.00 74 984.8
20260502122542 15 266 4.8 8.0 0.00 0.00 0.00 75 984.8
20260502122042 15 278 8.0 9.7 0.00 0.00 0.00 75 984.8
20260502121544 15 16 4.8 8.0 0.00 0.00 0.00 75 984.8
20260502121042 14 308 3.2 3.2 0.00 0.00 0.00 76 984.8
20260502120542 14 216 3.2 4.8 0.00 0.00 0.00 77 985.1
20260502115543 14 250 4.8 8.0 0.00 0.00 0.00 76 985.1
20260502115042 14 303 3.2 9.7 0.00 0.00 0.00 76 984.8
20260502114543 14 201 1.6 6.4 0.00 0.00 0.00 75 985.4
20260502114042 14 272 4.8 4.8 0.00 0.00 0.00 75 985.1
20260502113542 15 8 1.6 3.2 0.00 0.00 0.00 76 985.1
20260502113043 14 22 3.2 3.2 0.00 0.00 0.00 75 985.1
20260502112542 14 299 1.6 3.2 0.00 0.00 0.00 76 985.1
20260502112043 13 193 3.2 3.2 0.00 0.00 0.00 77 985.1
20260502111542 14 212 6.4 8.0 0.00 0.00 0.00 77 985.4
20260502111043 13 161 0.0 1.6 0.00 0.00 0.00 79 985.4
20260502110542 13 130 1.6 3.2 0.00 0.00 0.00 79 985.1
20260502110046 13 91 4.8 8.0 0.00 0.00 0.00 79 985.1
20260502105543 13 315 0.0 1.6 0.00 0.00 0.00 78 985.4
20260502105043 13 15 0.0 1.6 0.00 0.00 0.00 79 985.4
20260502104543 13 324 4.8 6.4 0.00 0.00 0.00 78 985.4
20260502104042 13 201 1.6 3.2 0.00 0.00 0.00 80 985.4
20260502103542 13 157 1.6 4.8 0.00 0.00 0.00 81 985.4
20260502103042 13 333 3.2 4.8 0.00 0.00 0.00 81 985.4
20260502102546 13 307 3.2 3.2 0.00 0.00 0.00 82 985.4
20260502102042 13 326 4.8 6.4 0.00 0.00 0.00 81 985.4
20260502101542 13 321 6.4 9.7 0.00 0.00 0.00 80 985.4
20260502101042 13 297 3.2 3.2 0.00 0.00 0.00 82 985.4
20260502100542 12 268 1.6 3.2 0.00 0.00 0.00 83 985.4
20260502091042 12 221 0.0 3.2 0.00 0.00 0.00 85 985.4
20260502090547 12 30 0.0 1.6 0.00 0.00 0.00 86 985.4
20260502071043 11 199 1.6 3.2 0.00 0.00 0.00 86 985.1
20260502070542 11 278 3.2 4.8 0.00 0.00 0.00 85 985.1
20260502070042 11 160 1.6 3.2 0.00 0.00 0.00 86 985.1
20260502065542 11 285 0.0 0.0 0.00 0.00 0.00 86 985.1
20260502065043 11 297 0.0 1.6 0.00 0.00 0.00 86 985.1
20260502064542 11 281 0.0 1.6 0.00 0.00 0.00 86 985.4
20260502064042 11 345 0.0 1.6 0.00 0.00 0.00 86 985.1
20260502063544 11 285 0.0 1.6 0.00 0.00 0.00 87 985.1
20260502063042 11 301 1.6 3.2 0.00 0.00 0.00 87 985.4
20260502062542 11 7 0.0 1.6 0.00 0.00 0.00 87 985.1
20260502062042 11 322 3.2 3.2 0.00 0.00 0.00 87 985.1
20260502061542 11 1 0.0 1.6 0.00 0.00 0.00 87 984.8
20260502061043 11 337 3.2 3.2 0.00 0.00 0.00 87 985.1
20260502060542 11 329 0.0 1.6 0.00 0.00 0.00 87 985.1
20260502060042 11 337 0.0 1.6 0.00 0.00 0.00 87 985.1
20260502055542 11 281 1.6 1.6 0.00 0.00 0.00 87 985.1
20260502055045 11 70 0.0 0.0 0.00 0.00 0.00 87 985.1
20260502054543 11 65 0.0 0.0 0.00 0.00 0.00 87 985.1
20260502054042 11 325 1.6 3.2 0.00 0.00 0.00 87 985.1
20260502053542 11 334 0.0 1.6 0.00 0.00 0.00 87 985.1
20260502053042 11 323 0.0 1.6 0.00 0.00 0.00 87 985.1
20260502052543 11 21 0.0 0.0 0.00 0.00 0.00 88 985.1
20260502052042 10 50 0.0 0.0 0.00 0.00 0.00 88 985.1
20260502051543 10 32 0.0 1.6 0.00 0.00 0.00 88 985.1
20260502051042 10 352 0.0 0.0 0.00 0.00 0.00 88 985.1